N8QQ Weather Reports


Display with metric or nautical units.
time (UTC)temp
F
wind
direction
speed
MPH
gust
MPH
rain 1hr
in
rain 24hr
in
rain mn
in
humidity
%
barometer
mb
20260504034016 50 175 0.0 2.0 0.00 0.00 0.00 70 1008.1
20260504033040 50 180 0.0 1.0 0.00 0.00 0.00 70 1008.2
20260504032036 50 0.0 0.0 0.00 0.00 0.00 69 1008.2
20260504031025 51 0.0 0.0 0.00 0.00 0.00 69 1008.2
20260504030029 51 0.0 0.0 0.00 0.00 0.00 68 1008.2
20260504025032 51 0.0 0.0 0.00 0.00 0.00 68 1008.3
20260504024037 52 0.0 1.0 0.00 0.00 0.00 68 1008.4
20260504023020 52 0.0 0.0 0.00 0.00 0.00 68 1008.5
20260504022023 52 0.0 0.0 0.00 0.00 0.00 65 1008.4
20260504021026 53 0.0 0.0 0.00 0.00 0.00 65 1008.3
20260504020029 54 63 0.0 2.0 0.00 0.00 0.00 65 1008.2
20260504015033 54 112 0.0 1.0 0.00 0.00 0.00 66 1008.2
20260504014017 54 45 0.0 1.0 0.00 0.00 0.00 65 1007.9
20260504013021 55 0.0 0.0 0.00 0.00 0.00 64 1007.9
20260504012024 56 40 1.0 2.0 0.00 0.00 0.00 60 1008.0
20260504011047 57 309 1.0 3.0 0.00 0.00 0.00 54 1008.0
20260504010030 57 89 1.0 3.0 0.00 0.00 0.00 50 1008.0
20260504005015 57 116 1.0 2.0 0.00 0.00 0.00 49 1007.9
20260504004018 58 151 1.0 4.0 0.00 0.00 0.00 48 1008.1
20260504003021 58 244 0.0 2.0 0.00 0.00 0.00 47 1008.3
20260504002026 58 200 1.0 2.0 0.00 0.00 0.00 48 1008.1
20260504001022 58 134 1.0 3.0 0.00 0.00 0.00 46 1008.0
20260504000019 59 72 1.0 4.0 0.00 0.00 0.00 46 1007.9
20260503235016 59 9 1.0 3.0 0.00 0.00 0.00 46 1008.0
20260503234019 60 161 0.0 3.0 0.00 0.00 0.00 47 1008.0
20260503233023 60 125 1.0 3.0 0.00 0.00 0.00 45 1008.1
20260503232025 60 149 1.0 4.0 0.00 0.00 0.00 45 1008.5
20260503231023 61 124 1.0 2.0 0.00 0.00 0.00 45 1008.7
20260503230027 61 180 1.0 2.0 0.00 0.00 0.00 44 1008.9
20260503225030 61 173 0.0 2.0 0.00 0.00 0.00 43 1009.0
20260503224015 61 187 2.0 4.0 0.00 0.00 0.00 44 1009.1
20260503223030 61 98 2.0 4.0 0.00 0.00 0.00 42 1009.1
20260503222015 62 17 2.0 6.0 0.00 0.00 0.00 42 1009.4
20260503221038 64 130 2.0 6.0 0.00 0.00 0.00 41 1009.5
20260503220021 64 167 3.0 5.0 0.00 0.00 0.00 40 1009.5
20260503215025 64 194 2.0 4.0 0.00 0.00 0.00 42 1009.6
20260503214028 62 191 2.0 3.0 0.00 0.00 0.00 42 1009.5
20260503213031 62 267 3.0 5.0 0.00 0.00 0.00 42 1009.6
20260503212017 62 232 1.0 3.0 0.00 0.00 0.00 43 1009.8
20260503211020 63 235 1.0 3.0 0.00 0.00 0.00 43 1010.1
20260503210023 62 247 1.0 3.0 0.00 0.00 0.00 43 1010.5
20260503205026 61 176 2.0 3.0 0.00 0.00 0.00 42 1010.5
20260503204024 61 194 2.0 6.0 0.00 0.00 0.00 42 1010.4
20260503203022 62 322 2.0 4.0 0.00 0.00 0.00 42 1010.4
20260503202017 64 113 2.0 4.0 0.00 0.00 0.00 41 1010.5
20260503201020 63 82 3.0 7.0 0.00 0.00 0.00 41 1010.6
20260503200024 62 136 2.0 5.0 0.00 0.00 0.00 42 1010.6
20260503195027 62 215 3.0 6.0 0.00 0.00 0.00 41 1010.9
20260503194030 63 15 2.0 4.0 0.00 0.00 0.00 41 1011.3
20260503193033 64 200 3.0 5.0 0.00 0.00 0.00 40 1011.3
20260503192018 64 234 2.0 5.0 0.00 0.00 0.00 40 1011.5
20260503191021 65 134 3.0 7.0 0.00 0.00 0.00 41 1011.6
20260503190024 64 242 1.0 3.0 0.00 0.00 0.00 41 1011.7
20260503185027 63 170 3.0 5.0 0.00 0.00 0.00 41 1012.0
20260503184030 63 209 3.0 6.0 0.00 0.00 0.00 40 1012.2
20260503183015 62 300 2.0 3.0 0.00 0.00 0.00 41 1012.3
20260503182018 62 23 3.0 6.0 0.00 0.00 0.00 41 1012.5
20260503181021 63 220 2.0 5.0 0.00 0.00 0.00 41 1012.5
20260503180025 64 134 3.0 9.0 0.00 0.00 0.00 40 1012.5
20260503175028 64 164 3.0 7.0 0.00 0.00 0.00 40 1012.7
20260503174032 64 233 4.0 10.0 0.00 0.00 0.00 40 1013.0
20260503173016 64 6 2.0 7.0 0.00 0.00 0.00 40 1013.0
20260503172020 64 225 3.0 8.0 0.00 0.00 0.00 38 1013.5
20260503171042 64 196 3.0 5.0 0.00 0.00 0.00 40 1013.6
20260503131036 53 196 2.0 4.0 0.00 0.00 0.00 54 1014.7
20260503081018 32 0.0 0.0 0.00 0.00 0.00 94 1013.4
20260503072016 32 0.0 0.0 0.00 0.00 0.00 93 1013.5
20260503071019 32 0.0 0.0 0.00 0.00 0.00 93 1013.5
20260503055025 33 0.0 0.0 0.00 0.00 0.00 92 1013.8
20260503054109 33 0.0 0.0 0.00 0.00 0.00 91 1013.9
20260503053032 33 0.0 0.0 0.00 0.00 0.00 90 1014.0
20260503052016 34 0.0 0.0 0.00 0.00 0.00 90 1013.9
20260503051101 34 0.0 0.0 0.00 0.00 0.00 90 1013.8
20260503050022 34 0.0 0.0 0.00 0.00 0.00 90 1013.8
20260503045026 35 0.0 0.0 0.00 0.00 0.00 90 1013.9
20260503044029 35 0.0 0.0 0.00 0.00 0.00 90 1013.9
20260503043032 35 0.0 0.0 0.00 0.00 0.00 89 1013.9
20260503042017 36 0.0 0.0 0.00 0.00 0.00 89 1013.9
20260503041021 36 0.0 0.0 0.00 0.00 0.00 88 1013.9
20260503040024 36 0.0 0.0 0.00 0.00 0.00 87 1014.0
20260503035027 36 0.0 0.0 0.00 0.00 0.00 86 1014.0